Wind_Speed
11 9 9 9 10 11 11 10 10 9 9 8 8 6 5 4 4 4 5 7 8 8 8 9 9 8 8 8 8 7 7 5 4 4 4 4 5 6 6 7 8 8 8 9 9 9 9 10 10 10 10 10 10 11 11 11 12 12 13 14 15 16 17 17 18 18 18 19 19 19 19 18 18 18
12 9 8 8 9 10 11 11 10 9 9 9 8 8 7 5 5 4 5 5 6 7 7 8 9 9 9 8 8 7 6 5 3 4 5 6 7 8 9 10 11 11 11 11 11 11 11 11 11 11 12 12 12 12 12 12 13 13 14 15 16 17 18 19 20 20 21 22 22 22 21 20 20 19
13 11 9 8 8 8 9 10 10 9 8 9 9 10 10 9 8 7 7 7 7 7 7 7 8 9 8 8 8 7 6 4 4 5 5 6 7 9 10 11 12 13 14 14 14 14 14 14 14 14 15 15 15 14 14 14 15 15 16 16 17 18 19 20 22 22 23 23 23 23 22 22 21 21
14 13 11 9 9 9 10 10 10 10 9 9 9 10 10 10 10 10 9 9 9 9 9 9 8 8 9 9 9 8 7 6 6 6 7 8 8 9 10 11 13 14 15 15 16 16 16 17 17 17 17 17 16 16 16 17 17 18 18 18 19 20 20 21 23 24 24 24 24 24 23 23 22 22
16 14 13 12 11 11 11 12 11 11 11 11 10 10 10 10 10 10 10 11 11 11 11 11 10 10 10 10 10 9 8 8 9 9 10 10 11 11 12 13 15 16 17 18 19 19 19 19 20 20 19 19 19 19 19 20 20 21 21 21 22 22 22 23 24 25 25 25 25 24 24 23 23 23
16 16 16 15 14 14 13 14 14 13 13 13 12 12 12 12 12 12 12 13 13 13 13 14 14 13 13 13 13 12 12 12 12 13 14 15 16 16 17 18 20 20 21 22 23 23 22 23 23 23 22 22 22 22 23 23 24 24 24 24 24 24 25 25 25 26 26 26 25 25 25 24 24 24
18 18 18 18 17 17 16 16 16 16 15 15 14 14 14 14 15 16 16 16 16 16 16 16 17 17 17 17 18 18 18 18 17 18 18 20 21 21 22 23 24 24 25 25 25 25 25 25 25 25 25 25 25 26 26 27 27 27 27 27 28 28 28 28 28 27 27 26 25 25 25 25 25 25
21 20 20 20 20 19 19 19 18 18 18 18 18 17 17 16 17 17 18 18 19 19 18 18 18 19 19 20 21 21 22 23 23 23 23 24 24 25 25 26 26 27 27 27 28 28 28 27 27 28 28 28 29 29 29 30 30 30 30 30 31 31 31 31 30 30 29 27 26 26 27 27 27 28
24 23 22 21 21 21 21 22 22 21 21 22 22 22 22 22 21 20 20 20 21 21 21 21 21 22 22 23 24 25 25 26 26 26 26 26 26 27 27 28 28 29 29 30 30 30 30 30 30 30 30 31 31 32 32 33 33 33 33 33 34 33 34 33 33 32 31 29 27 28 28 29 30 31
27 25 24 23 23 23 24 24 24 24 24 24 24 25 25 26 26 26 25 25 25 25 26 26 26 26 26 27 28 28 28 28 28 27 28 28 28 28 29 30 30 31 31 32 32 33 33 33 33 33 33 33 34 35 35 35 35 35 35 36 36 35 35 35 35 35 33 30 28 28 29 30 32 33
29 29 28 27 27 27 27 27 28 29 28 27 27 27 27 28 28 28 28 29 29 29 30 30 30 30 30 30 30 30 30 30 29 29 29 30 30 30 31 32 33 33 34 34 35 36 36 36 36 36 36 36 37 37 37 37 37 36 36 37 37 36 36 36 36 36 33 31 30 30 31 33 35 35
30 30 30 30 30 30 31 32 32 32 32 32 32 31 31 31 31 31 31 31 31 32 32 32 32 32 33 33 33 33 33 34 34 34 34 34 34 34 34 35 36 36 36 37 37 38 39 39 39 39 39 39 38 38 37 37 36 35 36 37 37 36 35 36 36 34 33 32 32 33 34 36 37 37
32 32 32 33 34 33 34 35 36 36 38 38 36 35 34 34 35 35 36 36 36 36 36 35 35 36 36 37 37 38 38 38 38 39 39 39 39 39 39 39 39 39 39 40 40 40 40 41 41 40 40 39 38 38 37 36 36 36 37 38 36 34 33 34 34 34 34 35 36 37 38 39 40 40
35 36 36 36 37 36 37 41 43 44 44 42 41 40 39 40 40 41 41 41 41 41 41 41 40 40 41 41 42 42 42 42 42 42 43 43 43 43 43 43 43 42 42 42 42 42 42 42 41 41 41 39 38 37 37 37 37 36 36 36 35 34 35 36 36 37 38 38 40 42 44 45 44 42
38 38 40 41 41 42 45 48 49 48 46 45 45 45 46 46 46 46 45 44 44 45 45 45 44 44 45 46 46 47 46 45 45 45 45 46 46 47 46 46 45 45 44 43 43 43 43 42 41 41 40 39 38 37 37 38 38 37 37 37 37 38 40 41 41 42 43 43 44 46 48 48 47 45
38 37 40 43 45 47 49 49 47 47 47 46 47 47 48 49 49 49 49 48 47 48 50 49 48 46 46 48 49 49 49 49 49 49 49 48 49 48 48 47 47 47 46 45 45 45 44 44 43 42 41 40 39 38 39 40 41 41 42 42 42 43 45 46 46 47 47 48 49 50 50 51 50 49
40 39 39 40 41 45 49 49 47 47 47 46 47 48 48 49 49 50 51 51 51 52 53 52 50 49 49 48 46 44 45 48 49 49 49 48 47 47 47 48 48 48 47 46 46 46 46 46 45 45 44 43 42 42 42 44 45 45 46 46 46 47 48 49 49 49 49 50 51 51 52 54 54 54
44 44 43 41 40 42 47 49 48 47 48 48 48 47 47 48 49 51 52 53 53 52 52 51 51 53 54 52 47 44 45 45 44 44 44 44 44 44 44 45 47 48 48 47 48 48 48 47 47 48 46 45 47 47 47 47 48 48 48 48 48 49 49 50 50 50 51 52 52 53 55 57 58 58
46 46 47 48 49 50 51 52 51 50 50 50 50 50 50 50 51 52 53 53 53 52 52 51 51 56 58 54 51 50 48 46 45 45 44 44 43 43 44 44 44 45 46 48 50 51 50 49 49 49 48 48 50 49 48 48 49 49 49 49 50 51 51 51 52 52 53 53 54 56 58 60 60 61
48 49 50 52 54 56 57 57 56 56 56 57 55 52 51 52 54 56 55 54 54 54 53 53 55 58 59 56 53 53 50 48 47 46 45 45 44 43 45 45 45 46 48 50 51 51 50 51 51 51 51 52 52 50 48 49 50 50 49 49 51 52 53 54 54 54 54 54 55 58 60 61 62 63
53 54 55 56 57 59 60 60 61 61 63 63 59 55 54 56 58 59 59 58 57 56 55 56 57 60 60 58 55 54 53 52 50 48 48 48 45 43 46 48 49 50 50 50 49 47 47 50 52 52 53 54 52 51 51 51 52 52 51 51 53 54 54 54 54 54 54 56 58 60 62 62 64 66
58 59 60 61 63 64 64 65 66 67 67 67 66 64 62 61 62 63 63 62 61 60 59 59 60 62 62 61 58 56 55 55 53 51 52 52 50 50 52 52 51 51 50 50 50 49 49 52 54 52 53 54 53 53 54 53 53 54 53 53 56 57 57 56 56 57 58 60 62 63 63 64 65 66
60 61 62 64 65 66 67 68 69 71 72 72 72 71 69 67 69 69 68 66 66 65 64 64 64 65 65 64 62 61 59 57 55 53 53 55 57 57 56 52 49 50 53 54 54 54 55 56 56 53 52 53 54 55 57 57 56 57 56 57 59 61 61 61 62 62 63 64 64 64 64 66 68 68
61 62 63 65 66 67 68 69 70 72 73 74 74 74 74 74 76 76 75 74 73 72 71 70 69 69 68 67 65 64 62 60 58 56 56 58 59 58 56 54 53 55 57 55 53 54 55 56 56 55 54 53 55 57 59 60 60 60 60 60 61 63 64 64 63 64 65 66 67 67 68 71 73 75
61 61 63 64 66 66 67 69 70 71 73 74 74 75 76 77 79 80 80 81 81 80 79 77 75 75 74 73 71 69 67 66 64 62 60 59 58 57 55 54 56 59 60 57 54 54 55 56 56 57 56 55 56 58 60 61 62 62 62 62 63 64 64 64 65 66 68 69 70 72 74 77 79 81
55 56 57 58 59 60 62 64 66 68 70 71 72 72 74 75 77 79 81 83 84 84 84 83 82 81 81 80 78 76 74 72 71 68 65 62 61 61 60 59 60 61 61 59 58 59 59 59 59 59 58 58 59 60 61 62 63 63 64 64 64 65 66 67 69 71 72 73 74 77 80 83 84 85
48 49 50 51 53 54 56 58 61 63 65 66 67 68 68 69 71 73 76 79 82 85 86 86 86 86 85 84 83 81 80 78 76 73 69 66 66 68 68 68 68 68 66 65 65 65 65 64 65 65 64 62 62 62 63 63 63 64 65 66 68 69 71 72 74 75 76 78 81 83 86 86 86 85
45 47 49 51 53 54 55 57 59 61 63 64 64 65 66 66 67 68 70 72 75 79 82 85 86 87 88 88 87 86 85 83 80 78 74 71 69 70 70 70 70 70 70 70 70 70 71 71 71 71 70 68 66 67 67 67 67 69 71 72 73 74 75 76 78 80 82 84 86 86 85 84 84 83
47 49 51 53 55 56 58 59 61 63 65 65 66 66 67 68 69 69 70 70 72 74 76 79 81 84 87 89 89 89 88 87 85 83 81 78 74 72 72 71 70 70 69 70 70 70 70 71 72 73 73 72 72 72 72 73 74 75 76 76 77 78 80 82 84 86 86 85 85 84 84 84 84 84
51 53 54 55 56 57 58 60 61 63 65 66 67 68 69 71 72 73 74 75 75 76 76 77 78 80 83 86 87 88 88 88 88 87 86 86 84 82 80 77 75 73 72 72 72 72 71 71 71 71 72 73 74 75 76 77 78 79 80 81 82 84 86 86 86 86 85 84 84 84 85 85 86 87
50 53 55 57 58 59 60 61 62 63 64 65 66 67 69 71 73 75 77 78 80 81 81 81 81 81 82 83 84 86 87 88 88 88 88 88 88 88 88 87 85 83 81 80 80 80 79 79 78 78 78 79 80 81 81 82 82 83 84 85 86 86 86 86 85 86 86 86 86 87 87 88 89 90
49 51 54 56 58 60 61 62 63 64 65 66 67 68 69 70 72 74 76 77 79 80 81 82 83 84 84 84 84 84 85 86 87 88 88 88 89 89 89 90 90 91 91 90 89 87 86 86 85 85 85 85 85 85 84 84 84 84 85 85 85 86 86 87 87 88 88 89 89 90 90 90 91 91
49 50 52 54 56 58 59 60 61 62 63 65 66 66 67 68 68 69 70 70 71 72 73 75 77 79 81 83 83 83 83 84 85 86 87 88 88 89 90 90 91 92 92 92 92 90 89 89 89 89 89 88 88 87 87 86 86 86 87 87 88 89 90 90 90 91 91 91 91 91 91 91 91 90
46 47 48 50 52 53 54 55 56 57 58 59 59 59 59 59 58 58 59 59 60 61 62 63 66 68 71 74 76 78 78 79 80 82 84 86 87 88 89 90 90 91 92 92 92 92 91 92 92 93 93 92 92 92 91 91 91 91 92 92 93 93 92 92 92 92 92 91 91 91 90 89 88 87
42 43 44 46 47 48 48 49 49 50 50 50 50 49 48 47 46 45 46 47 48 49 51 53 54 57 60 62 66 68 70 71 72 74 76 79 82 85 87 88 89 90 90 91 91 91 92 92 93 93 94 94 94 94 94 94 94 94 94 94 93 93 92 92 91 91 91 90 89 88 86 85 83 82
38 39 40 42 42 42 42 42 42 42 41 41 40 40 39 37 36 36 35 36 37 38 40 42 44 47 49 52 55 58 59 61 63 65 67 69 73 76 79 82 84 86 87 88 89 90 91 91 92 92 92 93 93 93 93 93 93 93 92 92 92 91 90 90 89 88 87 85 84 82 81 79 78 76
36 37 38 40 39 38 36 36 36 36 36 35 35 34 33 32 31 30 30 30 30 30 32 34 36 38 41 43 45 48 50 52 54 56 58 60 63 66 69 72 75 77 79 81 83 85 87 88 89 90 90 91 91 91 91 91 91 91 90 89 88 87 86 84 83 81 80 79 77 76 75 73 72 71
36 37 38 38 37 35 34 33 32 32 32 32 32 32 32 31 30 30 29 28 28 27 27 28 29 31 34 36 38 40 42 44 46 48 50 52 55 57 60 63 65 67 69 72 74 77 79 81 83 84 85 86 86 86 86 86 85 84 83 82 81 79 78 77 75 74 73 72 71 70 69 68 67 65
39 39 38 38 37 35 34 32 32 31 31 31 31 32 32 32 32 31 31 30 29 28 27 26 26 27 28 30 32 34 36 38 40 42 44 46 48 51 53 55 57 59 61 63 65 67 69 71 72 73 75 75 76 75 75 75 74 74 74 73 72 71 70 69 69 68 67 66 65 64 63 62 61 60
43 42 40 39 37 36 35 34 33 33 32 32 32 32 32 33 32 32 32 31 30 29 28 27 27 26 26 26 27 28 29 31 33 35 37 39 42 44 46 48 50 52 53 55 57 59 60 61 62 63 64 64 64 64 64 64 65 65 65 64 64 64 63 63 63 62 61 61 60 59 58 58 58 57
46 46 43 41 39 38 37 36 35 34 34 34 33 33 33 33 33 33 33 32 31 30 29 28 27 27 27 27 26 26 27 27 28 29 30 32 34 36 38 40 42 44 46 48 49 50 52 53 53 54 55 55 56 57 57 57 58 58 58 58 58 58 58 57 57 57 57 56 56 56 56 56 56 56
47 47 45 43 41 39 37 36 35 35 35 34 34 33 33 33 33 33 33 33 32 31 30 29 28 27 27 27 26 27 27 27 28 28 29 29 30 31 32 34 36 37 39 41 42 43 45 46 47 48 49 50 50 51 52 52 52 52 52 52 52 52 53 53 53 53 53 54 54 54 54 54 54 54
47 48 46 44 41 39 38 37 36 35 35 34 34 33 33 33 33 33 33 33 33 33 32 31 30 29 28 27 27 26 27 27 28 28 29 30 30 31 31 32 33 34 36 37 38 39 40 41 43 44 45 45 46 47 47 47 47 48 48 48 48 48 49 49 50 50 50 51 51 51 51 51 51 52
46 47 46 44 41 39 38 37 36 35 35 35 34 34 33 33 33 33 33 33 33 33 32 32 31 30 30 29 28 28 27 27 28 28 29 29 30 31 31 32 32 33 34 35 36 37 38 39 40 40 41 42 42 42 43 43 43 44 44 44 45 45 46 46 46 47 47 48 49 49 50 50 52 53
46 46 46 44 41 40 39 38 37 37 36 36 35 35 35 35 34 34 34 33 33 32 32 32 32 32 31 31 30 29 29 29 29 29 29 30 30 30 31 31 32 33 33 34 34 35 35 36 37 37 38 38 39 39 39 39 40 40 40 41 41 42 43 44 44 45 46 48 49 50 51 52 53 54
Wind_Direction
176 174 173 174 176 179 183 185 185 183 182 178 171 166 163 163 170 175 170 165 166 166 164 162 162 165 167 169 174 175 171 175 198 219 231 240 251 258 265 269 273 277 281 282 286 289 292 295 294 293 293 294 295 297 299 302 304 306 308 308 308 308 307 307 306 306 306 307 308 309 309 308 306 304
189 188 188 188 190 193 197 201 204 205 208 208 206 205 206 205 203 205 205 199 200 199 188 179 179 180 183 184 185 187 182 180 211 247 258 261 262 264 267 269 270 273 275 276 278 280 283 285 282 280 282 284 287 290 293 296 298 301 303 304 305 305 305 305 304 303 303 303 304 304 305 304 302 300
201 204 209 211 210 209 208 209 211 215 218 219 220 224 227 229 227 224 221 216 219 225 218 207 201 197 200 202 199 198 195 195 214 243 261 267 267 267 269 271 273 274 275 276 278 279 280 281 279 279 280 282 286 288 290 293 296 298 301 302 304 305 307 307 305 303 302 301 301 301 301 301 300 298
211 214 219 223 225 226 225 223 221 221 222 221 221 225 229 233 232 231 230 228 231 238 240 237 228 223 229 231 223 216 218 223 230 242 256 263 267 269 273 277 278 278 279 282 285 286 284 282 281 281 282 283 285 287 289 290 293 296 298 300 303 306 308 309 307 305 302 301 300 299 299 298 298 297
221 225 228 230 232 233 232 232 232 231 231 231 231 233 235 236 234 233 234 235 236 238 240 243 244 244 248 251 248 243 241 243 245 250 256 262 267 273 279 284 286 286 287 290 292 292 291 289 287 286 285 286 286 287 288 290 293 295 298 301 303 305 307 308 308 306 305 302 300 298 297 297 296 297
228 232 235 238 240 240 238 236 236 237 239 243 246 248 249 249 246 244 244 243 241 240 240 243 247 250 253 257 261 262 262 260 259 259 261 266 271 276 281 285 288 290 291 292 293 292 291 291 290 289 288 288 287 288 289 292 294 297 300 302 302 303 303 305 306 306 305 304 301 297 295 296 297 298
232 236 239 241 243 244 244 241 239 239 242 245 250 254 256 255 253 251 250 250 248 247 246 246 248 251 254 257 261 264 266 266 265 265 267 270 274 277 280 283 286 289 290 291 292 291 290 289 287 287 287 287 287 287 289 291 293 296 298 299 299 299 299 301 303 304 303 301 299 298 296 296 297 298
234 237 240 243 245 247 248 248 247 245 246 247 248 251 253 254 254 252 250 250 251 251 252 252 253 255 257 259 262 264 266 267 268 270 271 273 275 277 280 282 284 286 287 288 289 289 288 287 286 285 285 285 285 285 286 288 290 292 294 295 295 295 296 297 299 301 300 296 295 296 296 295 295 295
236 239 242 245 249 252 253 254 255 254 253 253 253 253 254 253 253 252 251 250 251 253 255 256 258 260 262 264 265 266 267 268 269 270 273 274 275 277 279 281 282 283 284 285 286 286 286 286 285 284 283 283 282 283 284 285 287 288 290 291 292 292 294 295 296 299 298 294 294 296 296 296 297 297
239 241 244 246 250 254 255 257 259 259 258 258 259 259 258 258 257 257 256 255 255 256 258 260 261 263 265 266 268 268 268 268 269 270 272 274 277 278 280 281 282 284 285 285 285 285 284 284 283 282 282 281 281 282 283 285 286 287 288 289 290 290 291 292 294 297 295 291 291 294 296 298 300 300
244 245 247 249 252 256 258 260 262 262 260 260 261 261 261 262 262 261 262 261 261 261 261 263 265 267 268 269 270 270 271 271 272 272 275 277 279 281 283 285 285 286 286 287 287 285 284 282 281 280 280 280 281 282 284 286 287 287 287 289 289 290 290 290 292 293 290 286 286 289 294 299 302 301
250 250 251 253 255 259 262 263 263 262 261 261 261 262 264 264 265 265 265 265 265 265 265 265 266 268 269 270 271 272 273 274 274 275 277 278 281 283 285 285 285 286 287 287 287 285 284 282 281 280 280 280 281 282 284 284 284 285 288 291 291 290 289 288 289 289 286 283 282 284 292 300 304 304
256 256 256 258 262 265 265 263 262 262 263 263 263 265 267 267 267 267 266 265 266 266 266 267 267 268 269 270 271 272 273 274 275 276 277 279 281 282 283 284 285 286 287 288 287 285 284 283 282 281 281 280 281 281 281 281 283 288 294 294 289 286 286 286 285 286 284 282 281 282 289 298 302 303
259 260 260 260 263 264 263 262 263 264 264 265 266 267 267 267 267 266 265 265 266 266 267 267 268 269 270 271 271 272 272 274 274 276 277 278 280 281 282 283 284 285 286 287 286 286 285 285 284 283 282 281 280 279 278 281 286 291 294 291 284 280 281 283 284 285 285 285 285 285 288 294 299 299
257 258 258 257 258 259 260 261 262 263 265 267 267 266 264 264 264 264 265 267 268 268 268 268 269 271 271 271 271 271 271 272 273 274 275 276 277 279 280 281 282 284 285 285 285 285 285 285 285 285 283 282 280 277 276 278 282 283 284 283 280 278 280 283 285 286 287 288 288 287 289 294 296 296
256 258 259 258 257 258 259 262 263 264 265 266 266 265 264 263 264 265 266 266 266 267 268 269 270 272 271 271 270 270 270 270 271 271 272 274 276 277 278 279 280 282 283 283 283 283 283 283 284 284 284 282 281 278 276 276 277 277 277 277 277 278 280 283 284 285 286 288 288 288 290 294 294 293
255 258 261 261 260 259 259 262 265 266 266 266 266 266 266 265 265 266 265 264 264 266 267 268 268 268 268 269 269 270 270 270 270 270 270 272 274 275 277 278 279 280 281 281 281 281 281 281 282 282 281 281 282 281 279 278 278 278 278 278 278 279 280 281 283 284 285 287 288 288 290 293 292 291
257 257 256 256 258 260 261 262 264 266 267 267 269 269 269 268 267 265 264 264 265 266 267 268 267 265 264 265 266 267 269 269 269 270 270 271 274 276 278 279 280 280 279 278 279 280 280 281 281 280 279 281 283 282 280 280 279 279 280 280 279 280 280 280 281 283 285 287 288 288 289 291 291 291
260 259 257 256 258 261 263 264 264 265 265 266 269 271 270 269 268 266 265 264 265 265 266 267 267 265 263 263 263 265 267 268 269 271 272 273 276 278 279 280 280 278 278 278 278 278 279 280 281 279 278 282 286 283 280 280 280 280 280 281 281 281 281 280 280 282 284 286 287 287 288 290 290 291
260 261 261 261 262 263 264 265 265 265 265 266 269 271 270 268 268 268 267 266 264 264 265 265 265 265 265 265 265 266 268 268 270 274 274 274 278 279 278 278 277 276 279 280 278 277 279 279 278 277 277 281 283 281 279 280 280 279 279 280 280 280 279 280 280 282 284 285 286 287 288 289 290 291
260 261 262 263 264 264 265 265 266 266 266 267 267 267 268 269 269 269 268 267 265 264 264 264 264 265 266 266 266 267 267 267 269 271 271 273 276 274 271 272 275 278 280 278 276 276 277 275 275 276 277 279 279 278 277 278 277 276 276 275 275 275 276 278 280 282 284 286 287 287 288 288 289 292
263 263 264 264 265 265 265 266 266 267 267 267 267 266 267 267 268 269 269 269 268 267 265 264 263 264 265 265 265 265 266 267 266 266 267 269 269 267 268 272 276 279 279 276 275 276 273 270 272 274 275 275 273 273 274 274 273 272 272 271 272 273 274 276 278 281 284 286 287 287 286 287 290 292
268 267 267 267 267 267 267 267 267 267 267 267 267 266 266 266 267 267 268 268 268 268 267 266 265 264 264 265 264 264 265 265 264 263 264 265 265 266 270 272 274 276 276 274 276 276 274 272 272 271 271 272 271 270 270 270 269 269 269 270 271 272 274 276 279 281 284 285 286 284 283 285 289 291
272 271 271 270 270 270 269 269 268 267 267 266 266 265 265 265 266 266 266 266 266 267 267 267 266 265 265 264 263 263 263 262 262 263 262 262 263 264 266 266 266 268 269 271 273 274 272 271 271 268 267 267 268 269 269 268 268 268 269 270 271 273 275 277 278 281 283 283 283 282 282 284 287 289
273 273 273 272 272 272 271 270 269 269 268 267 266 266 265 264 264 265 265 265 266 265 265 265 264 264 265 264 264 263 262 261 261 261 260 261 262 261 260 260 261 261 263 265 268 267 266 266 267 267 266 266 267 269 269 269 269 269 270 271 273 274 274 274 275 278 280 280 280 281 282 284 287 289
275 275 274 274 273 273 273 273 272 272 271 271 270 269 268 267 266 265 265 265 265 265 265 264 264 263 264 264 264 263 263 261 261 260 258 257 258 258 255 254 255 256 258 260 261 262 263 264 265 265 266 267 268 269 270 270 270 270 271 271 272 273 273 273 274 277 278 279 280 282 284 286 288 289
274 274 273 273 273 273 273 274 274 275 275 275 275 275 274 273 271 269 268 267 266 265 265 265 264 263 263 262 262 262 261 260 259 258 256 254 253 254 255 255 255 255 256 257 258 260 262 264 264 264 264 265 266 267 268 269 269 269 270 271 272 272 273 274 275 277 279 281 283 284 286 287 288 288
274 274 273 272 272 272 272 273 273 274 275 276 277 277 277 276 275 273 271 269 267 266 265 265 264 264 263 262 261 261 260 259 257 255 253 251 250 251 253 254 255 256 257 258 259 261 262 264 264 264 263 263 263 264 265 265 266 267 268 269 271 272 273 274 276 279 282 283 284 285 286 287 287 288
277 278 278 277 276 275 274 274 274 274 275 276 276 277 276 276 275 274 273 271 270 268 266 265 264 263 263 262 261 260 260 259 257 255 252 250 248 249 250 251 252 253 256 258 259 261 262 262 263 263 263 264 264 265 265 264 265 265 266 267 269 271 273 276 279 281 283 284 285 286 286 287 288 289
279 281 281 281 280 279 278 277 276 276 276 275 275 274 274 273 272 272 272 271 269 268 267 265 264 262 262 261 260 260 259 258 257 256 254 252 250 249 250 250 249 250 251 253 256 258 259 259 260 261 262 263 264 265 265 265 265 265 266 268 270 273 276 278 280 282 283 284 285 286 287 288 289 290
282 283 284 283 282 282 280 279 279 278 277 276 275 274 272 271 270 270 269 268 267 266 265 264 262 261 261 260 260 259 258 257 256 255 255 254 253 252 252 251 251 251 252 253 255 257 258 259 260 261 263 264 266 267 267 267 268 269 270 272 273 276 278 280 281 283 284 285 286 287 288 289 290 291
289 288 287 286 284 283 282 282 280 279 278 277 276 275 274 272 271 270 270 269 268 267 266 265 263 261 260 260 260 260 259 259 258 256 255 254 254 254 254 253 253 254 255 256 257 258 259 259 260 261 264 265 267 268 269 270 271 272 273 274 276 278 280 281 282 283 284 285 286 287 288 289 290 291
296 294 292 290 288 285 284 283 281 280 279 278 277 276 276 275 275 275 275 274 274 273 271 269 267 265 263 261 260 260 260 260 260 259 258 257 255 255 255 255 255 256 256 257 258 258 259 259 260 262 264 265 267 268 270 271 272 273 275 276 278 279 281 282 283 284 284 286 286 287 288 289 290 291
301 299 297 295 293 290 288 286 284 283 282 281 280 279 279 280 280 280 280 279 278 277 275 273 271 269 267 265 263 262 262 261 261 261 260 259 258 257 257 256 257 257 258 259 259 259 260 260 261 263 264 266 267 269 270 272 273 274 276 277 279 280 281 282 283 284 285 286 286 287 288 289 290 291
305 305 306 304 301 298 294 291 289 287 285 285 284 284 285 285 285 285 284 283 282 280 278 276 273 271 269 267 266 265 263 263 262 262 261 261 260 260 259 259 259 259 260 260 261 262 262 263 264 265 266 267 268 270 271 272 274 275 276 277 279 280 281 282 283 284 284 285 286 287 288 289 290 290
311 313 316 316 313 308 303 299 296 294 293 293 293 293 293 293 292 291 290 290 288 286 284 281 278 275 272 270 268 267 266 264 263 262 262 261 261 260 260 260 260 260 261 261 262 263 264 265 266 267 268 269 270 271 272 273 274 275 276 278 279 280 281 282 282 283 284 285 286 287 288 289 289 290
318 321 323 323 321 319 317 314 310 306 304 304 304 304 304 303 302 301 300 299 298 296 293 290 287 283 279 276 274 271 270 268 266 265 264 263 262 261 261 261 261 262 262 262 263 263 264 265 266 267 268 269 270 271 272 273 275 276 277 278 279 279 280 281 282 283 284 285 286 287 288 288 288 289
324 326 328 328 327 327 327 327 324 320 317 315 314 314 315 315 315 314 313 311 309 308 305 301 297 292 287 283 280 278 276 274 272 270 268 267 266 265 264 264 264 264 264 264 265 265 266 266 267 268 269 270 271 272 273 274 275 276 277 277 278 279 280 281 282 283 284 285 286 286 286 287 287 287
329 329 330 331 331 331 331 332 333 333 331 328 326 324 323 323 323 323 322 321 319 317 315 312 309 304 298 292 287 284 281 279 277 275 273 272 271 270 269 268 268 267 267 267 267 267 268 268 269 269 270 271 272 273 274 274 275 276 277 278 279 280 281 282 282 283 283 284 284 285 285 285 286 286
330 330 329 330 332 333 334 334 336 336 336 336 334 331 329 327 327 326 325 325 324 322 320 318 315 312 309 304 299 294 289 285 282 280 278 276 275 273 272 272 271 270 270 269 269 269 269 270 270 271 271 272 273 273 274 274 275 276 277 279 280 280 281 281 282 282 282 283 283 284 284 285 285 286
327 329 328 327 329 332 334 335 336 335 335 335 334 333 331 329 328 326 325 325 324 324 323 322 320 318 315 312 309 305 301 296 292 289 285 282 280 278 277 275 274 273 272 271 271 271 271 271 272 272 272 273 273 274 275 276 277 278 279 279 280 280 280 281 281 281 282 282 283 283 284 285 286 286
324 327 327 325 326 328 331 333 334 334 333 332 331 330 329 328 327 326 325 323 323 323 322 322 321 320 318 316 314 311 307 303 300 296 293 290 287 285 283 281 279 278 277 276 275 275 274 274 274 275 275 275 276 277 277 278 278 278 278 279 279 279 280 280 281 282 283 284 284 285 286 286 287 288
321 324 325 323 322 324 327 330 331 332 332 330 328 326 326 325 324 323 323 322 321 320 320 320 320 320 319 318 316 314 311 308 304 300 296 293 291 288 286 284 282 281 280 279 278 277 277 277 277 277 277 277 277 277 277 277 278 278 278 279 279 280 281 282 282 283 284 285 286 287 287 288 289 290
317 321 323 321 320 320 322 325 327 328 328 327 326 324 323 322 322 321 321 320 319 319 318 317 317 318 318 318 317 316 314 311 308 304 300 296 293 290 287 285 283 281 279 278 277 277 276 276 276 276 276 276 276 276 277 277 278 279 279 280 280 281 282 283 284 285 286 287 288 288 289 290 291 292
315 318 320 319 317 316 317 320 322 323 323 323 322 320 319 319 319 319 319 318 317 317 317 316 315 315 315 315 315 315 314 313 311 308 304 301 297 293 290 287 284 282 281 279 278 277 276 275 275 275 276 276 276 277 278 278 279 279 280 280 281 282 283 284 285 287 288 289 290 291 292 293 293 294
Height
10996 10996 10997 10997 10998 10998 10999 10999 10999 10999 10999 10999 10999 10999 10999 10999 10999 10999 10998 10998 10997 10996 10996 10995 10995 10995 10995 10995 10994 10994 10994 10995 10996 10996 10996 10995 10996 10996 10996 10995 10995 10994 10994 10993 10992 10992 10991 10991 10990 10990 10989 10988 10988 10987 10987 10986 10985 10985 10984 10983 10982 10981 10980 10979 10978 10977 10976 10975 10973 10972 10971 10970 10969 10968
10995 10996 10996 10997 10997 10998 10998 10999 10999 10999 10999 10999 10999 10999 10999 10999 10999 10999 10999 10998 10998 10997 10996 10996 10996 10996 10995 10995 10995 10995 10995 10995 10996 10996 10996 10995 10995 10995 10995 10995 10994 10994 10993 10993 10992 10991 10991 10990 10989 10989 10988 10988 10987 10986 10986 10985 10984 10983 10982 10981 10980 10979 10978 10977 10976 10975 10974 10972 10971 10970 10969 10968 10967 10966
10995 10995 10995 10996 10997 10997 10998 10998 10998 10998 10998 10998 10998 10998 10998 10999 10999 10999 10999 10998 10998 10997 10997 10997 10997 10996 10996 10995 10995 10995 10995 10995 10995 10996 10996 10995 10995 10994 10994 10994 10994 10993 10993 10992 10991 10991 10990 10989 10988 10988 10987 10986 10985 10985 10984 10983 10982 10981 10980 10979 10978 10977 10976 10975 10974 10973 10971 10970 10969 10968 10967 10966 10965 10964
10994 10994 10994 10995 10995 10996 10996 10997 10997 10997 10998 10998 10998 10998 10998 10998 10998 10998 10998 10998 10997 10997 10997 10997 10997 10997 10996 10996 10995 10995 10995 10994 10995 10995 10995 10995 10994 10994 10993 10993 10993 10992 10992 10991 10990 10990 10989 10988 10987 10986 10985 10984 10983 10982 10982 10981 10980 10979 10978 10977 10976 10975 10974 10973 10971 10970 10969 10967 10966 10965 10964 10963 10962 10961
10993 10993 10994 10994 10994 10995 10995 10995 10996 10996 10997 10997 10997 10997 10997 10997 10997 10997 10997 10997 10997 10996 10996 10996 10996 10996 10996 10995 10995 10995 10994 10994 10994 10994 10994 10994 10993 10993 10992 10992 10991 10991 10990 10990 10989 10988 10987 10986 10985 10984 10983 10982 10981 10980 10979 10978 10977 10976 10975 10974 10973 10972 10971 10970 10968 10967 10965 10964 10963 10962 10961 10960 10959 10958
10993 10993 10993 10993 10993 10993 10994 10994 10994 10995 10995 10996 10996 10996 10996 10996 10996 10996 10995 10995 10995 10995 10995 10995 10995 10995 10995 10994 10994 10994 10993 10993 10993 10992 10992 10992 10991 10991 10990 10990 10989 10989 10988 10987 10986 10985 10985 10984 10983 10982 10981 10980 10979 10978 10977 10976 10975 10974 10973 10972 10970 10969 10968 10967 10965 10964 10962 10961 10960 10959 10958 10956 10955 10954
10991 10992 10992 10992 10992 10992 10992 10992 10993 10993 10994 10994 10994 10995 10995 10994 10994 10994 10994 10994 10994 10994 10993 10993 10993 10993 10993 10992 10992 10992 10991 10991 10991 10990 10990 10989 10989 10989 10988 10987 10987 10986 10985 10984 10983 10982 10982 10981 10980 10979 10978 10977 10976 10975 10974 10973 10972 10971 10970 10968 10967 10966 10965 10964 10962 10961 10959 10958 10957 10956 10954 10953 10952 10951
10990 10990 10991 10991 10991 10991 10991 10991 10991 10992 10992 10992 10993 10993 10993 10993 10992 10992 10992 10992 10992 10992 10992 10991 10991 10991 10991 10990 10990 10989 10989 10988 10988 10988 10987 10987 10986 10986 10985 10984 10984 10983 10982 10981 10980 10979 10978 10977 10976 10975 10974 10973 10972 10971 10970 10969 10968 10967 10966 10965 10964 10962 10961 10960 10959 10957 10956 10955 10953 10952 10951 10950 10949 10947
10989 10989 10989 10990 10990 10990 10990 10990 10990 10990 10990 10991 10991 10991 10991 10990 10990 10990 10990 10990 10990 10989 10989 10989 10989 10989 10988 10988 10987 10987 10986 10986 10985 10985 10985 10984 10983 10983 10982 10981 10980 10979 10978 10977 10977 10976 10975 10973 10972 10971 10970 10969 10968 10967 10966 10965 10964 10963 10962 10961 10959 10958 10957 10956 10955 10953 10952 10951 10950 10948 10947 10946 10945 10943
10988 10988 10988 10989 10989 10989 10989 10988 10988 10988 10988 10988 10988 10988 10988 10988 10988 10988 10987 10987 10987 10987 10986 10986 10986 10986 10985 10985 10984 10983 10983 10982 10982 10982 10982 10981 10980 10979 10979 10977 10976 10975 10975 10974 10973 10972 10971 10969 10968 10967 10966 10965 10964 10963 10962 10960 10959 10958 10957 10956 10955 10954 10953 10951 10950 10949 10948 10947 10945 10944 10943 10941 10940 10939
10986 10987 10987 10987 10987 10987 10987 10987 10986 10985 10985 10985 10984 10984 10985 10985 10985 10985 10985 10985 10984 10984 10984 10983 10983 10982 10982 10981 10980 10980 10979 10979 10979 10979 10978 10977 10977 10976 10975 10974 10973 10972 10971 10970 10969 10968 10966 10965 10964 10963 10961 10960 10959 10958 10957 10956 10955 10953 10952 10951 10950 10949 10948 10947 10946 10945 10944 10942 10941 10939 10938 10937 10936 10934
10984 10985 10985 10985 10985 10984 10984 10983 10983 10981 10980 10980 10980 10981 10981 10982 10982 10982 10982 10981 10981 10981 10980 10980 10980 10979 10978 10977 10977 10976 10975 10975 10975 10975 10974 10974 10973 10973 10972 10970 10969 10968 10967 10966 10965 10963 10962 10960 10959 10958 10957 10956 10954 10953 10952 10951 10950 10948 10947 10946 10945 10945 10944 10943 10941 10940 10939 10937 10936 10934 10933 10932 10930 10929
10982 10982 10982 10982 10981 10980 10979 10978 10977 10976 10975 10975 10977 10978 10979 10979 10979 10978 10977 10977 10976 10976 10975 10975 10975 10975 10974 10974 10973 10972 10971 10971 10970 10970 10970 10969 10969 10968 10967 10966 10964 10963 10962 10961 10960 10958 10957 10955 10954 10953 10952 10951 10950 10948 10947 10946 10945 10944 10943 10942 10941 10940 10939 10937 10936 10935 10934 10932 10931 10929 10928 10927 10926 10925
10978 10978 10979 10978 10977 10976 10973 10970 10969 10969 10969 10971 10974 10976 10977 10975 10974 10972 10971 10971 10971 10970 10970 10970 10970 10970 10969 10969 10967 10967 10966 10966 10966 10965 10965 10965 10964 10963 10962 10961 10959 10957 10957 10956 10955 10953 10952 10950 10949 10948 10947 10946 10945 10943 10942 10941 10940 10939 10938 10937 10935 10935 10933 10932 10931 10930 10928 10927 10926 10924 10923 10922 10921 10920
10972 10972 10972 10972 10972 10969 10964 10961 10961 10963 10965 10968 10969 10970 10969 10968 10967 10966 10966 10967 10966 10965 10965 10964 10965 10965 10964 10962 10961 10961 10960 10961 10961 10960 10959 10959 10958 10957 10956 10955 10953 10952 10951 10950 10949 10948 10947 10945 10944 10943 10942 10942 10941 10939 10938 10936 10935 10934 10933 10931 10930 10929 10928 10927 10926 10924 10923 10922 10921 10919 10917 10916 10915 10914
10965 10965 10964 10964 10964 10961 10956 10954 10957 10959 10961 10962 10962 10961 10961 10961 10961 10961 10962 10962 10960 10959 10958 10959 10960 10960 10958 10955 10953 10953 10954 10954 10955 10954 10953 10953 10952 10951 10951 10950 10948 10947 10946 10944 10943 10942 10941 10940 10940 10939 10938 10936 10935 10934 10933 10932 10930 10929 10927 10926 10925 10924 10922 10921 10920 10918 10917 10916 10914 10913 10911 10910 10908 10907
10959 10959 10958 10957 10957 10955 10950 10950 10952 10954 10954 10955 10955 10955 10955 10955 10956 10955 10954 10954 10953 10953 10952 10953 10954 10953 10949 10946 10947 10948 10948 10947 10947 10947 10947 10947 10946 10945 10945 10944 10942 10941 10940 10939 10937 10937 10936 10935 10934 10933 10932 10931 10930 10928 10927 10926 10924 10923 10922 10921 10919 10918 10916 10915 10914 10913 10911 10909 10908 10906 10905 10904 10902 10900
10953 10953 10953 10952 10952 10950 10946 10946 10948 10948 10947 10948 10949 10950 10950 10950 10949 10948 10946 10946 10947 10947 10946 10947 10946 10943 10938 10939 10942 10943 10942 10941 10941 10941 10941 10941 10941 10939 10939 10938 10936 10935 10935 10933 10931 10930 10930 10929 10929 10927 10926 10924 10923 10922 10921 10919 10918 10916 10915 10914 10913 10912 10910 10909 10908 10906 10905 10903 10901 10900 10898 10897 10895 10894
10947 10947 10947 10946 10945 10943 10941 10941 10943 10942 10941 10941 10943 10944 10944 10943 10942 10939 10939 10940 10940 10940 10940 10940 10937 10930 10928 10932 10936 10936 10936 10936 10936 10936 10937 10936 10935 10934 10932 10931 10929 10928 10928 10928 10925 10923 10923 10923 10922 10920 10919 10918 10916 10915 10914 10913 10911 10910 10908 10907 10906 10904 10903 10902 10901 10900 10898 10896 10895 10893 10891 10890 10888 10887
10940 10940 10940 10939 10938 10937 10935 10935 10936 10935 10934 10935 10937 10938 10937 10936 10934 10932 10932 10933 10932 10932 10933 10933 10928 10921 10921 10926 10929 10929 10931 10932 10932 10933 10932 10931 10931 10929 10924 10922 10922 10921 10922 10922 10919 10918 10918 10916 10914 10914 10912 10911 10909 10909 10908 10906 10904 10903 10902 10901 10899 10897 10896 10895 10894 10893 10891 10890 10889 10887 10885 10883 10881 10879
10933 10933 10933 10932 10930 10929 10929 10929 10929 10928 10927 10928 10931 10931 10930 10928 10925 10924 10924 10925 10924 10925 10926 10924 10920 10916 10915 10919 10922 10923 10925 10926 10929 10931 10927 10925 10928 10925 10918 10915 10916 10916 10917 10915 10912 10914 10913 10908 10906 10907 10905 10903 10902 10902 10901 10899 10897 10896 10896 10895 10892 10890 10889 10889 10887 10886 10885 10883 10882 10880 10878 10876 10874 10872
10926 10925 10925 10924 10922 10921 10921 10921 10921 10919 10918 10919 10921 10923 10923 10921 10918 10915 10916 10917 10916 10917 10917 10916 10913 10910 10909 10911 10914 10916 10918 10920 10923 10925 10922 10919 10919 10918 10914 10914 10914 10911 10910 10907 10905 10907 10906 10900 10899 10901 10898 10895 10895 10895 10893 10892 10891 10889 10889 10888 10885 10883 10882 10882 10881 10880 10878 10876 10875 10873 10871 10869 10867 10865
10918 10917 10917 10915 10913 10913 10913 10912 10911 10910 10909 10909 10911 10912 10913 10913 10909 10907 10908 10909 10908 10907 10907 10907 10906 10903 10901 10903 10906 10908 10910 10912 10914 10917 10917 10912 10909 10910 10911 10912 10912 10905 10900 10899 10900 10900 10897 10892 10892 10894 10891 10888 10888 10887 10886 10885 10883 10882 10882 10881 10879 10876 10875 10875 10874 10872 10870 10868 10867 10866 10864 10862 10860 10858
10909 10909 10908 10906 10904 10904 10904 10902 10901 10900 10899 10899 10900 10902 10903 10902 10900 10898 10898 10899 10899 10898 10898 10898 10896 10894 10892 10894 10896 10899 10901 10903 10905 10909 10909 10904 10901 10904 10906 10906 10906 10899 10891 10891 10895 10892 10888 10884 10882 10883 10884 10883 10881 10879 10877 10876 10875 10874 10874 10873 10872 10870 10868 10867 10866 10864 10862 10860 10859 10858 10856 10854 10852 10850
10901 10900 10899 10897 10895 10894 10893 10891 10890 10889 10887 10887 10889 10890 10891 10891 10890 10888 10888 10887 10887 10886 10886 10886 10886 10884 10883 10884 10887 10889 10892 10894 10895 10898 10899 10895 10891 10894 10897 10897 10894 10888 10884 10886 10888 10883 10879 10877 10874 10874 10876 10876 10875 10873 10870 10868 10868 10867 10866 10866 10864 10863 10861 10860 10858 10857 10854 10853 10851 10849 10847 10845 10843 10840
10894 10893 10891 10889 10887 10885 10884 10882 10880 10878 10876 10876 10878 10878 10879 10879 10879 10878 10876 10874 10873 10873 10873 10874 10874 10874 10874 10874 10877 10879 10880 10883 10884 10886 10889 10887 10881 10879 10883 10884 10882 10878 10878 10879 10877 10874 10872 10871 10869 10868 10869 10868 10868 10866 10863 10862 10861 10860 10859 10858 10856 10855 10853 10852 10850 10848 10846 10844 10842 10840 10838 10836 10834 10831
10887 10886 10884 10882 10880 10879 10877 10874 10871 10869 10867 10867 10867 10867 10867 10867 10867 10866 10864 10862 10860 10860 10860 10860 10861 10862 10862 10863 10865 10866 10867 10870 10872 10874 10877 10877 10870 10866 10868 10870 10869 10869 10869 10868 10866 10866 10865 10864 10862 10861 10861 10860 10860 10858 10856 10855 10854 10852 10851 10850 10848 10847 10845 10842 10840 10838 10836 10835 10833 10830 10828 10826 10824 10821
10882 10880 10878 10876 10874 10873 10871 10868 10865 10862 10860 10859 10858 10858 10856 10855 10854 10852 10851 10850 10848 10848 10847 10847 10847 10848 10848 10848 10851 10853 10854 10856 10859 10861 10862 10863 10860 10857 10856 10857 10857 10858 10857 10856 10856 10856 10856 10855 10853 10852 10852 10851 10850 10849 10848 10847 10846 10844 10843 10841 10839 10837 10835 10832 10830 10828 10827 10825 10823 10820 10818 10816 10813 10811
10875 10873 10871 10869 10867 10865 10864 10861 10858 10855 10852 10851 10850 10848 10846 10844 10842 10839 10838 10837 10835 10834 10834 10833 10833 10833 10832 10832 10835 10838 10839 10842 10845 10846 10848 10849 10849 10848 10846 10846 10846 10846 10845 10845 10845 10845 10845 10845 10844 10842 10842 10841 10840 10839 10838 10837 10836 10835 10833 10832 10830 10827 10825 10823 10820 10818 10817 10815 10812 10810 10808 10806 10803 10800
10869 10866 10863 10861 10859 10857 10855 10853 10851 10848 10845 10842 10840 10838 10836 10833 10830 10827 10826 10824 10822 10820 10820 10820 10820 10819 10817 10817 10820 10822 10824 10826 10829 10831 10833 10835 10836 10836 10835 10835 10835 10835 10834 10833 10833 10833 10834 10834 10833 10833 10832 10831 10830 10829 10828 10827 10826 10825 10824 10822 10820 10818 10815 10813 10810 10808 10806 10804 10802 10800 10798 10796 10793 10790
10862 10859 10855 10852 10850 10848 10846 10844 10841 10839 10836 10833 10830 10828 10825 10822 10818 10815 10813 10810 10808 10806 10805 10806 10806 10806 10804 10804 10805 10807 10809 10811 10813 10816 10818 10820 10821 10822 10823 10823 10823 10823 10822 10822 10822 10822 10822 10822 10821 10821 10821 10820 10819 10818 10817 10817 10816 10815 10814 10812 10810 10808 10805 10803 10800 10798 10796 10794 10792 10790 10788 10785 10783 10780
10855 10851 10847 10843 10840 10838 10836 10833 10831 10828 10826 10823 10819 10816 10813 10809 10805 10802 10799 10797 10794 10793 10792 10792 10793 10793 10792 10792 10792 10793 10795 10797 10799 10801 10804 10806 10808 10809 10809 10810 10810 10810 10810 10810 10810 10811 10811 10810 10810 10810 10809 10808 10807 10807 10806 10806 10805 10804 10803 10801 10799 10797 10795 10793 10790 10788 10785 10783 10782 10780 10778 10775 10773 10770
10847 10844 10839 10835 10831 10828 10825 10823 10820 10816 10813 10810 10807 10804 10800 10797 10793 10790 10786 10784 10782 10780 10779 10779 10779 10780 10780 10780 10781 10781 10783 10784 10786 10788 10790 10792 10794 10796 10797 10797 10798 10797 10797 10798 10798 10799 10800 10799 10799 10798 10797 10796 10796 10796 10796 10795 10794 10793 10792 10790 10788 10787 10784 10782 10780 10778 10775 10773 10771 10769 10767 10765 10762 10759
10840 10836 10832 10827 10822 10818 10815 10812 10809 10805 10802 10799 10796 10792 10789 10786 10783 10780 10777 10774 10771 10770 10769 10767 10767 10767 10767 10768 10769 10770 10771 10773 10774 10775 10777 10778 10781 10783 10784 10785 10786 10786 10786 10786 10787 10788 10788 10788 10787 10787 10786 10786 10785 10785 10785 10785 10784 10782 10781 10779 10778 10776 10774 10772 10770 10767 10765 10763 10761 10759 10757 10754 10752 10749
10834 10830 10825 10821 10816 10811 10807 10803 10800 10796 10793 10790 10787 10784 10781 10778 10775 10772 10769 10766 10763 10761 10760 10759 10758 10757 10757 10757 10757 10758 10760 10761 10762 10763 10764 10766 10767 10769 10771 10772 10774 10774 10775 10775 10776 10776 10776 10776 10776 10775 10775 10775 10775 10775 10774 10774 10773 10772 10771 10769 10767 10765 10763 10761 10759 10757 10755 10753 10751 10749 10747 10744 10741 10739
10829 10825 10820 10815 10810 10805 10801 10797 10793 10789 10786 10783 10780 10777 10775 10772 10769 10766 10763 10760 10758 10755 10753 10751 10750 10749 10749 10749 10748 10748 10749 10751 10752 10752 10753 10754 10755 10757 10758 10760 10761 10762 10763 10764 10764 10765 10765 10765 10765 10765 10765 10765 10765 10764 10764 10763 10763 10762 10760 10759 10757 10755 10753 10751 10749 10747 10745 10743 10741 10739 10737 10734 10731 10729
10825 10821 10816 10811 10806 10801 10796 10792 10788 10784 10781 10778 10775 10772 10769 10767 10764 10761 10759 10756 10753 10750 10748 10746 10744 10743 10742 10742 10741 10741 10741 10741 10742 10743 10743 10744 10745 10746 10747 10748 10750 10751 10752 10752 10753 10753 10754 10754 10754 10754 10754 10754 10754 10754 10753 10752 10752 10751 10749 10748 10746 10745 10743 10741 10739 10737 10735 10733 10731 10729 10727 10725 10722 10720
10820 10816 10812 10807 10802 10797 10793 10789 10785 10781 10777 10774 10771 10768 10765 10762 10759 10757 10754 10751 10749 10746 10744 10742 10740 10738 10737 10736 10735 10734 10734 10734 10734 10734 10735 10735 10736 10737 10738 10739 10740 10741 10741 10742 10742 10743 10743 10743 10744 10744 10744 10743 10743 10743 10742 10742 10741 10740 10738 10737 10736 10734 10733 10731 10729 10728 10726 10724 10722 10720 10718 10716 10714 10712
10816 10812 10808 10804 10799 10795 10791 10786 10782 10778 10774 10771 10768 10765 10762 10759 10756 10753 10750 10748 10745 10743 10741 10739 10737 10735 10733 10731 10730 10729 10729 10728 10728 10728 10728 10728 10728 10729 10729 10730 10731 10732 10732 10733 10733 10733 10734 10734 10734 10734 10733 10733 10733 10733 10732 10731 10730 10729 10728 10727 10726 10725 10723 10722 10720 10719 10717 10715 10714 10712 10710 10707 10705 10704
10811 10808 10805 10801 10797 10792 10788 10783 10779 10775 10771 10768 10765 10762 10759 10756 10753 10751 10748 10745 10743 10740 10738 10736 10734 10732 10730 10728 10727 10725 10724 10723 10723 10722 10722 10722 10722 10722 10722 10723 10723 10724 10724 10724 10724 10725 10725 10725 10725 10724 10724 10724 10723 10723 10722 10722 10721 10720 10719 10718 10717 10716 10714 10713 10711 10710 10708 10707 10705 10703 10701 10699 10697 10695
10806 10804 10800 10797 10793 10789 10785 10780 10776 10772 10768 10765 10762 10759 10756 10753 10751 10748 10746 10743 10741 10738 10736 10734 10731 10729 10727 10725 10723 10722 10721 10720 10719 10718 10717 10717 10717 10717 10717 10717 10717 10717 10717 10717 10717 10717 10717 10716 10716 10716 10715 10715 10714 10714 10714 10713 10713 10712 10711 10710 10709 10708 10706 10704 10703 10701 10700 10698 10697 10695 10694 10692 10690 10688
10802 10799 10796 10792 10789 10786 10782 10777 10773 10769 10766 10762 10759 10756 10753 10751 10748 10746 10743 10741 10738 10736 10734 10732 10729 10727 10725 10723 10721 10719 10718 10716 10715 10714 10713 10713 10712 10712 10711 10711 10711 10711 10710 10710 10710 10710 10710 10709 10709 10708 10708 10707 10707 10707 10706 10706 10706 10705 10704 10703 10702 10700 10699 10697 10695 10694 10692 10690 10689 10688 10686 10684 10682 10681
10797 10794 10791 10788 10785 10781 10778 10774 10771 10767 10764 10761 10757 10754 10751 10748 10746 10743 10741 10738 10736 10733 10731 10729 10727 10725 10723 10721 10719 10717 10715 10713 10712 10711 10709 10709 10708 10707 10707 10706 10706 10705 10705 10704 10704 10704 10703 10703 10702 10702 10701 10701 10700 10700 10700 10699 10699 10698 10697 10696 10695 10693 10692 10690 10689 10687 10685 10683 10682 10680 10679 10677 10675 10673
10792 10789 10787 10784 10781 10778 10774 10771 10768 10764 10761 10759 10756 10753 10750 10747 10744 10741 10738 10736 10733 10731 10729 10726 10724 10722 10720 10718 10716 10714 10712 10711 10709 10707 10706 10705 10704 10703 10702 10702 10701 10700 10699 10699 10698 10698 10698 10697 10696 10696 10695 10695 10694 10694 10693 10693 10692 10691 10691 10690 10688 10687 10685 10684 10682 10681 10679 10677 10675 10674 10672 10670 10668 10665
10786 10784 10782 10779 10776 10773 10770 10767 10764 10761 10758 10755 10753 10750 10747 10745 10742 10739 10737 10734 10732 10729 10727 10724 10722 10720 10718 10716 10714 10712 10710 10708 10706 10705 10703 10702 10701 10700 10698 10697 10697 10696 10695 10694 10693 10693 10692 10691 10691 10690 10690 10689 10688 10688 10687 10687 10686 10685 10684 10683 10682 10681 10679 10678 10676 10675 10673 10671 10669 10667 10665 10663 10661 10658